Location: Friaudour
(46.0460°N, 1.2873°E)
Time: 21:09:00
(UTC+00:00)

Cosmos 1833 Rocket - Pass Details

Date: 14 July 2020
Orbit: 832 x 840 km, 71.0° (Epoch: 14 August)

Event Time Altitude Azimuth Distance (km) Brightness Sun altitude
Exits shadow 00:44:46 17° 127° (SE) 1,978 4.4 -21.6°
Maximum altitude 00:46:44 21° 100° (E) 1,810 4.4 -21.5°
Drops below altitude 10° 00:50:45 10° 54° (NE) 2,449 5.7 -21.4°
Sets 00:53:46 0° 39° (NE) 3,390 6.9 -21.3°
